Location: Glenbow
(51.1592°N, 114.3828°W)
Time: 02:34:06
(UTC+00:00)

ISS - Visible Passes

Search period start: 07 December 2021 00:00
Search period end: 17 December 2021 00:00
Orbit: 417 x 422 km, 51.6° (Epoch: 06 December)

Date Brightness Start Highest point End Pass type
(mag) Time Alt. Az. Time Alt. Az. Time Alt. Az.
07 Dec -2.2 00:45:11 10° W 00:48:21 36° SSW 00:51:29 10° SE visible
08 Dec -0.6 01:35:37 10° WSW 01:37:15 13° SW 01:38:51 10° SSW visible
09 Dec -0.8 00:47:36 10° W 00:50:03 19° SW 00:52:29 10° S visible
